CMA CGM Volga — 5BJR2 — position and weather

sailwx.info

Track history (hours):
 
Tides and Currents Weather Stations Pressure Air Temp Water Temp Dewpoint Dewpoint Depression Visibility Wind Speed Wind Dir Waves Ship Positions

CMA CGM Volga

Last reported at 2014-Nov-27 05:14 UTC. Time now 2014-Nov-27 06:46 UTC.
Position N 59°41' E 023°44'.

Length 184 m; draft 9.5 m.

Type: Ship (hazmat cat A). MMSI: 212456000.

Date/timePositionNaut miles runAvg speedWind from/ knotsBaromVisibWave heightAir tempDewpointWater temp
2014-Nov-27 05:14N 59°41' E 023°44'2112.8
2014-Nov-27 03:33N 59°47' E 024°25'6412.8
2014-Nov-26 22:33N 60°01' E 026°29'1312.9
2014-Nov-26 21:32N 59°60' E 026°55'4 0.1
2014-Nov-25 17:14N 59°58' E 027°02'913.9
2014-Nov-25 16:33N 59°59' E 026°44'1413.8
2014-Nov-25 15:33N 59°56' E 026°17'4514.0
2014-Nov-25 12:22N 59°46' E 024°50'1316.8
2014-Nov-25 11:34N 59°44' E 024°24'33212.7
2014-Nov-24 09:22N 54°56' E 019°17'1113.8
2014-Nov-24 08:34N 54°45' E 019°12'1414.1
2014-Nov-24 07:33N 54°32' E 019°04'1212.3
2014-Nov-24 06:33N 54°25' E 018°47'2 2.4
2014-Nov-24 05:33N 54°23' E 018°43'0 0.0
2014-Nov-24 04:33N 54°23' E 018°43'0 0.0
2014-Nov-24 03:33N 54°23' E 018°43'0 0.0
2014-Nov-24 02:31N 54°23' E 018°43'0 0.0
2014-Nov-24 01:31N 54°23' E 018°43'0 0.0
2014-Nov-24 00:31N 54°23' E 018°43'0 0.0
2014-Nov-23 23:31N 54°23' E 018°43'0 0.0
2014-Nov-23 22:31N 54°23' E 018°43'0 0.0
2014-Nov-23 21:31N 54°23' E 018°43'0 0.0
2014-Nov-23 20:31N 54°23' E 018°43'0 0.0
2014-Nov-23 19:31N 54°23' E 018°43'0 0.0
2014-Nov-23 18:31N 54°23' E 018°43'0 0.0
2014-Nov-23 17:32N 54°23' E 018°43'0 0.0
2014-Nov-23 16:32N 54°23' E 018°43'0 0.0
2014-Nov-23 15:32N 54°23' E 018°43'0 0.0
2014-Nov-23 14:32N 54°23' E 018°43'0 0.0
2014-Nov-23 13:32N 54°23' E 018°43'0 0.0
2014-Nov-23 12:32N 54°23' E 018°43'0 0.0
2014-Nov-23 11:32N 54°23' E 018°43'0 0.0
2014-Nov-23 10:33N 54°23' E 018°43'0 0.0
2014-Nov-23 09:34N 54°23' E 018°43'0 0.0
2014-Nov-23 08:34N 54°23' E 018°43'5 4.5
2014-Nov-23 07:33N 54°25' E 018°50'1110.7
2014-Nov-23 06:33N 54°34' E 019°02'1312.6
2014-Nov-23 05:33N 54°46' E 019°05'1313.2
2014-Nov-23 04:33N 54°59' E 019°12'  
2014-Nov-20 12:18N 55°01' E 019°14'1013.8
2014-Nov-20 11:34N 54°51' E 019°18'1413.6
2014-Nov-20 10:34N 54°44' E 019°38'12 0.5
2014-Nov-19 12:13N 54°38' E 019°55'5 8.0
2014-Nov-19 11:33N 54°41' E 019°47'3 2.6
2014-Nov-19 10:33N 54°40' E 019°42'0 0.4
2014-Nov-19 09:33N 54°40' E 019°42'2 0.9
2014-Nov-19 07:31N 54°42' E 019°42'1111.6
2014-Nov-19 06:33N 54°45' E 019°23'3 3.4
2014-Nov-19 05:33N 54°45' E 019°17'1 0.9
2014-Nov-19 04:33N 54°45' E 019°19'1 0.9
2014-Nov-19 03:33N 54°44' E 019°20'1 0.8
2014-Nov-19 02:33N 54°44' E 019°21'1 1.2
2014-Nov-19 01:33N 54°44' E 019°23'1 1.1
2014-Nov-19 00:33N 54°44' E 019°25'1 0.9
2014-Nov-18 23:33N 54°44' E 019°27'3 2.6
2014-Nov-18 22:33N 54°44' E 019°22'1110.5
2014-Nov-18 21:34N 54°38' E 019°06'1313.0
2014-Nov-18 20:33N 54°26' E 018°59'9 9.3
2014-Nov-18 19:33N 54°24' E 018°43'1 0.5
2014-Nov-18 18:31N 54°23' E 018°43'0 0.0
2014-Nov-18 17:31N 54°23' E 018°43'0 0.0
2014-Nov-18 16:31N 54°23' E 018°43'0 0.0
2014-Nov-18 15:31N 54°23' E 018°43'0 0.0
2014-Nov-18 14:33N 54°23' E 018°43'0 0.0
2014-Nov-18 13:33N 54°23' E 018°43'0 0.0
2014-Nov-18 12:33N 54°23' E 018°43'0 0.0
2014-Nov-18 11:33N 54°23' E 018°43'0 0.0
2014-Nov-18 10:32N 54°23' E 018°43'0 0.0
2014-Nov-18 09:32N 54°23' E 018°43'0 0.0
2014-Nov-18 08:29N 54°23' E 018°43'0 0.0
2014-Nov-18 07:32N 54°23' E 018°43'0 0.0
2014-Nov-18 06:32N 54°23' E 018°43'0 0.0
2014-Nov-18 05:32N 54°23' E 018°43'0 0.0
2014-Nov-18 04:32N 54°23' E 018°43'0 0.0
2014-Nov-18 03:32N 54°23' E 018°43'0 0.0
2014-Nov-18 02:32N 54°23' E 018°43'0 0.0
2014-Nov-18 01:32N 54°23' E 018°43'0 0.0
2014-Nov-18 00:32N 54°23' E 018°43'0 0.0
2014-Nov-17 23:32N 54°23' E 018°43'0 0.0
2014-Nov-17 22:32N 54°23' E 018°43'0 0.0
2014-Nov-17 21:32N 54°23' E 018°43'0 0.0
2014-Nov-17 20:32N 54°23' E 018°43'0 0.0
2014-Nov-17 19:32N 54°23' E 018°43'0 0.0
2014-Nov-17 18:32N 54°23' E 018°43'0 0.0
2014-Nov-17 17:32N 54°23' E 018°43'0 0.0
2014-Nov-17 16:32N 54°23' E 018°43'0 0.0
2014-Nov-17 15:32N 54°23' E 018°43'0 0.0
2014-Nov-17 14:32N 54°23' E 018°43'0 0.0
2014-Nov-17 13:32N 54°23' E 018°43'0 0.0
2014-Nov-17 12:32N 54°23' E 018°43'0 0.0
2014-Nov-17 11:32N 54°23' E 018°43'0 0.0
2014-Nov-17 10:32N 54°23' E 018°43'0 0.0
2014-Nov-17 09:32N 54°23' E 018°43'0 0.0
2014-Nov-17 08:32N 54°23' E 018°43'0 0.0
2014-Nov-17 07:29N 54°23' E 018°43'0 0.0
2014-Nov-17 06:32N 54°23' E 018°43'0 0.0
2014-Nov-17 05:29N 54°23' E 018°43'  
Track history (hours):
 
Tides and Currents Weather Stations Pressure Air Temp Water Temp Dewpoint Dewpoint Depression Visibility Wind Speed Wind Dir Waves Ship Positions

CMA CGM Volga

Last reported at 2014-Nov-27 05:14 UTC. Time now 2014-Nov-27 06:46 UTC.
Position N 59°41' E 023°44'.

Length 184 m; draft 9.5 m.

Type: Ship (hazmat cat A). MMSI: 212456000.

Date/timePositionNaut miles runAvg speedWind from/ knotsBaromVisibWave heightAir tempDewpointWater temp
2014-Nov-27 05:14N 59°41' E 023°44'2112.8
2014-Nov-27 03:33N 59°47' E 024°25'6412.8
2014-Nov-26 22:33N 60°01' E 026°29'1312.9
2014-Nov-26 21:32N 59°60' E 026°55'4 0.1
2014-Nov-25 17:14N 59°58' E 027°02'913.9
2014-Nov-25 16:33N 59°59' E 026°44'1413.8
2014-Nov-25 15:33N 59°56' E 026°17'4514.0
2014-Nov-25 12:22N 59°46' E 024°50'1316.8
2014-Nov-25 11:34N 59°44' E 024°24'33212.7
2014-Nov-24 09:22N 54°56' E 019°17'1113.8
2014-Nov-24 08:34N 54°45' E 019°12'1414.1
2014-Nov-24 07:33N 54°32' E 019°04'1212.3
2014-Nov-24 06:33N 54°25' E 018°47'2 2.4
2014-Nov-24 05:33N 54°23' E 018°43'0 0.0
2014-Nov-24 04:33N 54°23' E 018°43'0 0.0
2014-Nov-24 03:33N 54°23' E 018°43'0 0.0
2014-Nov-24 02:31N 54°23' E 018°43'0 0.0
2014-Nov-24 01:31N 54°23' E 018°43'0 0.0
2014-Nov-24 00:31N 54°23' E 018°43'0 0.0
2014-Nov-23 23:31N 54°23' E 018°43'0 0.0
2014-Nov-23 22:31N 54°23' E 018°43'0 0.0
2014-Nov-23 21:31N 54°23' E 018°43'0 0.0
2014-Nov-23 20:31N 54°23' E 018°43'0 0.0
2014-Nov-23 19:31N 54°23' E 018°43'0 0.0
2014-Nov-23 18:31N 54°23' E 018°43'0 0.0
2014-Nov-23 17:32N 54°23' E 018°43'0 0.0
2014-Nov-23 16:32N 54°23' E 018°43'0 0.0
2014-Nov-23 15:32N 54°23' E 018°43'0 0.0
2014-Nov-23 14:32N 54°23' E 018°43'0 0.0
2014-Nov-23 13:32N 54°23' E 018°43'0 0.0
2014-Nov-23 12:32N 54°23' E 018°43'0 0.0
2014-Nov-23 11:32N 54°23' E 018°43'0 0.0
2014-Nov-23 10:33N 54°23' E 018°43'0 0.0
2014-Nov-23 09:34N 54°23' E 018°43'0 0.0
2014-Nov-23 08:34N 54°23' E 018°43'5 4.5
2014-Nov-23 07:33N 54°25' E 018°50'1110.7
2014-Nov-23 06:33N 54°34' E 019°02'1312.6
2014-Nov-23 05:33N 54°46' E 019°05'1313.2
2014-Nov-23 04:33N 54°59' E 019°12'  
2014-Nov-20 12:18N 55°01' E 019°14'1013.8
2014-Nov-20 11:34N 54°51' E 019°18'1413.6
2014-Nov-20 10:34N 54°44' E 019°38'12 0.5
2014-Nov-19 12:13N 54°38' E 019°55'5 8.0
2014-Nov-19 11:33N 54°41' E 019°47'3 2.6
2014-Nov-19 10:33N 54°40' E 019°42'0 0.4
2014-Nov-19 09:33N 54°40' E 019°42'2 0.9
2014-Nov-19 07:31N 54°42' E 019°42'1111.6
2014-Nov-19 06:33N 54°45' E 019°23'3 3.4
2014-Nov-19 05:33N 54°45' E 019°17'1 0.9
2014-Nov-19 04:33N 54°45' E 019°19'1 0.9
2014-Nov-19 03:33N 54°44' E 019°20'1 0.8
2014-Nov-19 02:33N 54°44' E 019°21'1 1.2
2014-Nov-19 01:33N 54°44' E 019°23'1 1.1
2014-Nov-19 00:33N 54°44' E 019°25'1 0.9
2014-Nov-18 23:33N 54°44' E 019°27'3 2.6
2014-Nov-18 22:33N 54°44' E 019°22'1110.5
2014-Nov-18 21:34N 54°38' E 019°06'1313.0
2014-Nov-18 20:33N 54°26' E 018°59'9 9.3
2014-Nov-18 19:33N 54°24' E 018°43'1 0.5
2014-Nov-18 18:31N 54°23' E 018°43'0 0.0
2014-Nov-18 17:31N 54°23' E 018°43'0 0.0
2014-Nov-18 16:31N 54°23' E 018°43'0 0.0
2014-Nov-18 15:31N 54°23' E 018°43'0 0.0
2014-Nov-18 14:33N 54°23' E 018°43'0 0.0
2014-Nov-18 13:33N 54°23' E 018°43'0 0.0
2014-Nov-18 12:33N 54°23' E 018°43'0 0.0
2014-Nov-18 11:33N 54°23' E 018°43'0 0.0
2014-Nov-18 10:32N 54°23' E 018°43'0 0.0
2014-Nov-18 09:32N 54°23' E 018°43'0 0.0
2014-Nov-18 08:29N 54°23' E 018°43'0 0.0
2014-Nov-18 07:32N 54°23' E 018°43'0 0.0
2014-Nov-18 06:32N 54°23' E 018°43'0 0.0
2014-Nov-18 05:32N 54°23' E 018°43'0 0.0
2014-Nov-18 04:32N 54°23' E 018°43'0 0.0
2014-Nov-18 03:32N 54°23' E 018°43'0 0.0
2014-Nov-18 02:32N 54°23' E 018°43'0 0.0
2014-Nov-18 01:32N 54°23' E 018°43'0 0.0
2014-Nov-18 00:32N 54°23' E 018°43'0 0.0
2014-Nov-17 23:32N 54°23' E 018°43'0 0.0
2014-Nov-17 22:32N 54°23' E 018°43'0 0.0
2014-Nov-17 21:32N 54°23' E 018°43'0 0.0
2014-Nov-17 20:32N 54°23' E 018°43'0 0.0
2014-Nov-17 19:32N 54°23' E 018°43'0 0.0
2014-Nov-17 18:32N 54°23' E 018°43'0 0.0
2014-Nov-17 17:32N 54°23' E 018°43'0 0.0
2014-Nov-17 16:32N 54°23' E 018°43'0 0.0
2014-Nov-17 15:32N 54°23' E 018°43'0 0.0
2014-Nov-17 14:32N 54°23' E 018°43'0 0.0
2014-Nov-17 13:32N 54°23' E 018°43'0 0.0
2014-Nov-17 12:32N 54°23' E 018°43'0 0.0
2014-Nov-17 11:32N 54°23' E 018°43'0 0.0
2014-Nov-17 10:32N 54°23' E 018°43'0 0.0
2014-Nov-17 09:32N 54°23' E 018°43'0 0.0
2014-Nov-17 08:32N 54°23' E 018°43'0 0.0
2014-Nov-17 07:29N 54°23' E 018°43'0 0.0
2014-Nov-17 06:32N 54°23' E 018°43'0 0.0
2014-Nov-17 05:29N 54°23' E 018°43'  

Dump ship's entire track history